Simultaneous Nadir Overpasses (SNOs) Predictions

Prediction of SNOs between AQUA and GOES-15 Satellite Orbit:

Table of predicted SNOs for the next 14.0 days since TLE Epoch: 9/26/2014
Index Date Time (AQUA) AQUA Lat,Lon GOES-15 Lat,Lon Distance(km) Time Diff (sec)
1 09/26/2014 10:38:11 0.36,-135.60 0.28,-135.26 38.55 80
2 09/28/2014 10:26:01 -0.27,-132.65 0.28,-135.30 301.10 80
3 09/28/2014 22:47:25 -0.79,-137.85 -0.26,-135.30 289.55 80
4 09/30/2014 22:35:13 -0.17,-134.89 -0.26,-135.32 49.19 80
5 10/02/2014 22:23:01 0.46,-131.93 -0.26,-135.34 387.43 80
6 10/03/2014 10:44:17 0.58,-137.09 0.24,-135.35 198.17 80
7 10/05/2014 10:32:04 -0.03,-134.13 0.24,-135.36 139.67 80
8 10/05/2014 22:53:28 -1.07,-139.32 -0.21,-135.35 451.95 80
9 10/07/2014 10:19:51 -0.67,-131.17 0.24,-135.36 477.41 80
10 10/07/2014 22:41:15 -0.42,-136.36 -0.22,-135.35 114.18 80
11 10/09/2014 22:29:01 0.19,-133.39 -0.22,-135.35 223.28 80




NCC Satellite Simultaneous Nadir Overpasses (SNOs) Prediction Service
